Time,TemperatureF,DewpointF,PressureIn,WindDirection,WindDirectionDegrees,WindSpeedMPH,WindSpeedGustMPH,Humidity,HourlyPrecipIn,Conditions,Clouds,dailyrainin,SoftwareType,DateUTC
2013-10-26 00:01:00,41.9,33.5,30.14,SSW,196,0.0,6.0,72,0.00,,OVC065,0.00,VWS V13.01,2013-10-26 04:01:00,
2013-10-26 00:05:00,41.8,33.1,30.14,SSW,201,3.0,7.0,71,0.00,,OVC065,0.00,VWS V13.01,2013-10-26 04:05:00,
2013-10-26 00:10:00,41.8,33.1,30.14,SSW,195,0.0,7.0,71,0.00,,OVC065,0.00,VWS V13.01,2013-10-26 04:10:00,
2013-10-26 00:15:00,41.8,33.5,30.14,South,182,0.0,7.0,72,0.00,,OVC065,0.00,VWS V13.01,2013-10-26 04:15:00,
2013-10-26 00:20:00,41.7,33.0,30.14,South,184,0.0,7.0,71,0.00,,OVC065,0.00,VWS V13.01,2013-10-26 04:20:00,
2013-10-26 00:25:00,41.6,33.3,30.14,South,184,0.0,7.0,72,0.00,,OVC065,0.00,VWS V13.01,2013-10-26 04:25:00,
2013-10-26 00:30:00,41.6,33.3,30.14,South,185,3.0,7.0,72,0.00,,OVC065,0.00,VWS V13.01,2013-10-26 04:30:00,
2013-10-26 00:35:00,41.6,32.9,30.14,South,188,1.0,6.0,71,0.00,,OVC065,0.00,VWS V13.01,2013-10-26 04:35:00,
2013-10-26 00:40:00,41.6,32.9,30.14,SSW,209,4.0,6.0,71,0.00,,OVC065,0.00,VWS V13.01,2013-10-26 04:40:00,
2013-10-26 00:45:00,41.5,32.8,30.13,SSW,200,1.0,6.0,71,0.00,,OVC065,0.00,VWS V13.01,2013-10-26 04:45:00,
2013-10-26 00:50:00,41.5,32.8,30.12,SSW,196,1.0,9.0,71,0.00,,OVC065,0.00,VWS V13.01,2013-10-26 04:50:00,
2013-10-26 00:55:00,41.5,32.8,30.12,SSW,196,2.0,9.0,71,0.00,,OVC065,0.00,VWS V13.01,2013-10-26 04:55:00,
2013-10-26 01:00:00,41.5,32.8,30.12,SSW,196,1.0,9.0,71,0.00,,OVC060,0.00,VWS V13.01,2013-10-26 05:00:00,
2013-10-26 01:05:00,41.5,32.8,30.12,SSW,198,0.0,6.0,71,0.00,,OVC060,0.00,VWS V13.01,2013-10-26 05:05:00,
2013-10-26 01:10:00,41.5,32.5,30.12,SSW,198,1.0,6.0,70,0.00,,OVC060,0.00,VWS V13.01,2013-10-26 05:10:00,
2013-10-26 01:15:00,41.5,32.1,30.12,SSW,192,0.0,9.0,69,0.00,,OVC060,0.00,VWS V13.01,2013-10-26 05:15:00,
2013-10-26 01:20:00,41.5,32.1,30.12,SSW,192,0.0,9.0,69,0.00,,OVC060,0.00,VWS V13.01,2013-10-26 05:20:00,
2013-10-26 01:25:00,41.3,31.9,30.13,SSW,192,1.0,9.0,69,0.00,,OVC060,0.00,VWS V13.01,2013-10-26 05:25:00,
2013-10-26 01:30:00,41.0,32.0,30.13,SSW,213,2.0,9.0,70,0.00,,OVC060,0.00,VWS V13.01,2013-10-26 05:30:00,
2013-10-26 01:35:00,40.7,31.3,30.12,WSW,241,3.0,3.0,69,0.00,,OVC060,0.00,VWS V13.01,2013-10-26 05:35:00,
2013-10-26 01:40:00,40.6,31.6,30.12,SSW,196,5.0,5.0,70,0.00,,OVC060,0.00,VWS V13.01,2013-10-26 05:40:00,
2013-10-26 01:45:00,40.5,31.5,30.12,SSW,198,1.0,5.0,70,0.00,,OVC060,0.00,VWS V13.01,2013-10-26 05:45:00,
2013-10-26 01:50:00,40.3,31.3,30.11,SSW,198,0.0,5.0,70,0.00,,OVC060,0.00,VWS V13.01,2013-10-26 05:50:00,
2013-10-26 01:55:00,40.2,31.6,30.11,SSW,196,0.0,5.0,71,0.00,,OVC060,0.00,VWS V13.01,2013-10-26 05:55:00,
2013-10-26 02:00:00,40.1,31.1,30.11,SSW,196,0.0,6.0,70,0.00,,SCT060,0.00,VWS V13.01,2013-10-26 06:00:00,
2013-10-26 02:05:00,40.1,31.5,30.10,SSW,194,3.0,6.0,71,0.00,,SCT060,0.00,VWS V13.01,2013-10-26 06:05:00,
2013-10-26 02:10:00,40.1,31.5,30.10,SSW,192,0.0,6.0,71,0.00,,SCT060,0.00,VWS V13.01,2013-10-26 06:10:00,
2013-10-26 02:15:00,40.1,31.5,30.10,SSW,192,0.0,6.0,71,0.00,,SCT060,0.00,VWS V13.01,2013-10-26 06:15:00,
2013-10-26 02:20:00,40.1,31.5,30.10,SSW,192,2.0,6.0,71,0.00,,SCT060,0.00,VWS V13.01,2013-10-26 06:20:00,
2013-10-26 02:25:00,40.1,31.5,30.09,SSW,192,1.0,6.0,71,0.00,,SCT060,0.00,VWS V13.01,2013-10-26 06:25:00,
2013-10-26 02:30:00,40.1,31.5,30.09,SSW,193,0.0,6.0,71,0.00,,SCT060,0.00,VWS V13.01,2013-10-26 06:30:00,
2013-10-26 02:35:00,40.0,31.4,30.09,SSW,193,1.0,3.0,71,0.00,,SCT060,0.00,VWS V13.01,2013-10-26 06:35:00,
2013-10-26 02:40:00,40.1,31.5,30.09,South,190,0.0,4.0,71,0.00,,SCT060,0.00,VWS V13.01,2013-10-26 06:40:00,
2013-10-26 02:45:00,40.1,31.5,30.09,South,191,0.0,5.0,71,0.00,,SCT060,0.00,VWS V13.01,2013-10-26 06:45:00,
2013-10-26 02:50:00,40.1,31.5,30.09,SSW,205,1.0,5.0,71,0.00,,SCT060,0.00,VWS V13.01,2013-10-26 06:50:00,
2013-10-26 02:55:00,40.1,31.1,30.09,SSW,196,0.0,5.0,70,0.00,,SCT060,0.00,VWS V13.01,2013-10-26 06:55:00,
2013-10-26 03:00:00,40.0,31.4,30.08,SSW,196,1.0,5.0,71,0.00,,BKN110,0.00,VWS V13.01,2013-10-26 07:00:00,
2013-10-26 03:05:00,39.8,31.2,30.08,South,186,0.0,5.0,71,0.00,,BKN110,0.00,VWS V13.01,2013-10-26 07:05:00,
2013-10-26 03:10:00,39.8,31.2,30.08,South,186,0.0,5.0,71,0.00,,BKN110,0.00,VWS V13.01,2013-10-26 07:10:00,
2013-10-26 03:15:00,39.7,31.1,30.08,South,186,0.0,5.0,71,0.00,,BKN110,0.00,VWS V13.01,2013-10-26 07:15:00,
2013-10-26 03:20:00,39.6,31.0,30.08,South,186,0.0,5.0,71,0.00,,BKN110,0.00,VWS V13.01,2013-10-26 07:20:00,
2013-10-26 03:25:00,39.4,31.1,30.08,South,186,0.0,5.0,72,0.00,,BKN110,0.00,VWS V13.01,2013-10-26 07:25:00,
2013-10-26 03:30:00,39.3,31.0,30.08,South,186,3.0,5.0,72,0.00,,BKN110,0.00,VWS V13.01,2013-10-26 07:30:00,
2013-10-26 03:35:00,39.3,31.0,30.07,ESE,104,0.0,3.0,72,0.00,,BKN110,0.00,VWS V13.01,2013-10-26 07:35:00,
2013-10-26 03:41:00,39.3,31.0,30.07,ESE,119,0.0,6.0,72,0.00,,BKN110,0.00,VWS V13.01,2013-10-26 07:41:00,
2013-10-26 03:46:00,39.2,31.0,30.07,SSE,152,0.0,6.0,72,0.00,,BKN110,0.00,VWS V13.01,2013-10-26 07:46:00,
2013-10-26 03:51:00,39.2,31.3,30.06,SSE,152,0.0,6.0,73,0.00,,BKN110,0.00,VWS V13.01,2013-10-26 07:51:00,
2013-10-26 03:56:00,39.3,31.4,30.05,SSE,168,2.0,6.0,73,0.00,,BKN110,0.00,VWS V13.01,2013-10-26 07:56:00,
2013-10-26 04:01:00,39.3,31.0,30.05,SE,134,1.0,6.0,72,0.00,,BKN100,0.00,VWS V13.01,2013-10-26 08:01:00,
2013-10-26 04:06:00,39.3,31.0,30.04,South,186,0.0,5.0,72,0.00,,BKN100,0.00,VWS V13.01,2013-10-26 08:06:00,
2013-10-26 04:11:00,39.4,31.1,30.04,South,171,0.0,6.0,72,0.00,,BKN100,0.00,VWS V13.01,2013-10-26 08:11:00,
2013-10-26 04:16:00,39.3,31.0,30.03,SSW,200,0.0,6.0,72,0.00,,BKN100,0.00,VWS V13.01,2013-10-26 08:16:00,
2013-10-26 04:21:00,39.3,31.0,30.03,SSW,198,0.0,6.0,72,0.00,,BKN100,0.00,VWS V13.01,2013-10-26 08:21:00,
2013-10-26 04:26:00,39.3,31.0,30.04,SSW,195,3.0,11.0,72,0.00,,BKN100,0.00,VWS V13.01,2013-10-26 08:26:00,
2013-10-26 04:31:00,39.3,31.0,30.04,SW,220,7.0,7.0,72,0.00,,BKN100,0.00,VWS V13.01,2013-10-26 08:31:00,
2013-10-26 04:36:00,39.5,30.9,30.03,SSW,192,5.0,7.0,71,0.00,,BKN100,0.00,VWS V13.01,2013-10-26 08:36:00,
2013-10-26 04:41:00,39.6,31.0,30.03,SSW,196,0.0,7.0,71,0.00,,BKN100,0.00,VWS V13.01,2013-10-26 08:41:00,
2013-10-26 04:46:00,39.6,31.0,30.03,SSW,196,2.0,7.0,71,0.00,,BKN100,0.00,VWS V13.01,2013-10-26 08:46:00,
2013-10-26 04:51:00,39.6,31.0,30.03,South,171,0.0,7.0,71,0.00,,BKN100,0.00,VWS V13.01,2013-10-26 08:51:00,
2013-10-26 04:56:00,39.6,31.0,30.02,SSW,201,2.0,7.0,71,0.00,,BKN100,0.00,VWS V13.01,2013-10-26 08:56:00,
2013-10-26 05:01:00,39.7,30.7,30.02,SSW,200,1.0,1.0,70,0.00,,OVC085,0.00,VWS V13.01,2013-10-26 09:01:00,
2013-10-26 05:06:00,39.6,30.6,30.02,SSW,200,4.0,4.0,70,0.00,,OVC085,0.00,VWS V13.01,2013-10-26 09:06:00,
2013-10-26 05:11:00,39.6,31.0,30.02,SW,215,0.0,9.0,71,0.00,,OVC085,0.00,VWS V13.01,2013-10-26 09:11:00,
2013-10-26 05:16:00,39.7,30.7,30.02,SSW,198,0.0,13.0,70,0.00,,OVC085,0.00,VWS V13.01,2013-10-26 09:16:00,
2013-10-26 05:21:00,39.8,30.8,30.02,SSW,196,1.0,13.0,70,0.00,,OVC085,0.00,VWS V13.01,2013-10-26 09:21:00,
2013-10-26 05:26:00,39.7,30.7,30.02,South,190,0.0,13.0,70,0.00,,OVC085,0.00,VWS V13.01,2013-10-26 09:26:00,
2013-10-26 05:31:00,39.6,30.6,30.01,SSW,194,4.0,4.0,70,0.00,,OVC085,0.00,VWS V13.01,2013-10-26 09:31:00,
2013-10-26 05:36:00,39.7,30.4,30.01,SW,225,1.0,9.0,69,0.00,,OVC085,0.00,VWS V13.01,2013-10-26 09:36:00,
2013-10-26 05:41:00,39.7,30.7,30.01,SSE,155,0.0,9.0,70,0.00,,OVC085,0.00,VWS V13.01,2013-10-26 09:41:00,
2013-10-26 05:46:00,39.8,30.5,30.01,SSW,204,9.0,16.0,69,0.00,,OVC085,0.00,VWS V13.01,2013-10-26 09:46:00,
2013-10-26 05:51:00,40.0,30.3,30.01,South,188,0.0,16.0,68,0.00,,OVC085,0.00,VWS V13.01,2013-10-26 09:51:00,
2013-10-26 05:56:00,40.0,30.3,30.01,SSW,212,2.0,16.0,68,0.00,,OVC085,0.00,VWS V13.01,2013-10-26 09:56:00,
2013-10-26 06:01:00,40.1,30.0,30.01,SSW,194,2.0,3.0,67,0.00,,FEW080,0.00,VWS V13.01,2013-10-26 10:01:00,
2013-10-26 06:07:00,40.4,30.0,30.00,South,180,5.0,16.0,66,0.00,,FEW080,0.00,VWS V13.01,2013-10-26 10:07:00,
2013-10-26 06:12:00,40.6,30.1,29.99,SSW,200,5.0,16.0,66,0.00,,FEW080,0.00,VWS V13.01,2013-10-26 10:12:00,
2013-10-26 06:17:00,40.6,29.8,29.99,SSW,195,5.0,16.0,65,0.00,,FEW080,0.00,VWS V13.01,2013-10-26 10:17:00,
2013-10-26 06:22:00,40.5,30.0,29.99,SSW,203,3.0,16.0,66,0.00,,FEW080,0.00,VWS V13.01,2013-10-26 10:22:00,
2013-10-26 06:27:00,40.5,30.0,29.99,SSW,202,0.0,16.0,66,0.00,,FEW080,0.00,VWS V13.01,2013-10-26 10:27:00,
2013-10-26 06:32:00,40.5,30.0,29.99,South,186,2.0,5.0,66,0.00,,FEW080,0.00,VWS V13.01,2013-10-26 10:32:00,
2013-10-26 06:37:00,40.6,29.8,29.98,ESE,121,4.0,11.0,65,0.00,,FEW080,0.00,VWS V13.01,2013-10-26 10:37:00,
2013-10-26 06:42:00,40.7,29.9,29.98,SSW,202,6.0,13.0,65,0.00,,FEW080,0.00,VWS V13.01,2013-10-26 10:42:00,
2013-10-26 06:47:00,40.6,29.8,29.98,South,173,2.0,13.0,65,0.00,,FEW080,0.00,VWS V13.01,2013-10-26 10:47:00,
2013-10-26 06:52:00,40.5,30.0,29.98,SSW,200,4.0,13.0,66,0.00,,FEW080,0.00,VWS V13.01,2013-10-26 10:52:00,
2013-10-26 06:57:00,40.5,29.7,29.97,SSW,200,5.0,13.0,65,0.00,,FEW080,0.00,VWS V13.01,2013-10-26 10:57:00,
2013-10-26 07:02:00,40.7,29.9,29.97,SSW,207,1.0,4.0,65,0.00,,SCT100,0.00,VWS V13.01,2013-10-26 11:02:00,
2013-10-26 07:07:00,40.7,29.9,29.98,SSW,194,5.0,11.0,65,0.00,,SCT100,0.00,VWS V13.01,2013-10-26 11:07:00,
2013-10-26 07:12:00,40.6,29.8,29.98,South,189,9.0,11.0,65,0.00,,SCT100,0.00,VWS V13.01,2013-10-26 11:12:00,
2013-10-26 07:17:00,40.6,29.8,29.97,SW,225,0.0,12.0,65,0.00,,SCT100,0.00,VWS V13.01,2013-10-26 11:17:00,
2013-10-26 07:22:00,40.5,30.0,29.97,SSW,198,3.0,12.0,66,0.00,,SCT100,0.00,VWS V13.01,2013-10-26 11:22:00,
2013-10-26 07:27:00,40.4,29.6,29.96,South,176,4.0,13.0,65,0.00,,SCT100,0.00,VWS V13.01,2013-10-26 11:27:00,
2013-10-26 07:32:00,40.4,30.0,29.96,South,178,5.0,10.0,66,0.00,,SCT100,0.00,VWS V13.01,2013-10-26 11:32:00,
2013-10-26 07:37:00,40.3,29.9,29.95,SSW,194,9.0,10.0,66,0.00,,SCT100,0.00,VWS V13.01,2013-10-26 11:37:00,
2013-10-26 07:42:00,40.3,29.9,29.95,South,176,3.0,16.0,66,0.00,,SCT100,0.00,VWS V13.01,2013-10-26 11:42:00,
2013-10-26 07:47:00,40.4,30.0,29.94,SSW,205,7.0,16.0,66,0.00,,SCT100,0.00,VWS V13.01,2013-10-26 11:47:00,
2013-10-26 07:52:00,40.5,30.0,29.94,South,186,0.0,16.0,66,0.00,,SCT100,0.00,VWS V13.01,2013-10-26 11:52:00,
2013-10-26 07:57:00,40.4,30.0,29.94,SSW,194,3.0,16.0,66,0.00,,SCT100,0.00,VWS V13.01,2013-10-26 11:57:00,
2013-10-26 08:02:00,40.3,29.9,29.94,SSW,192,3.0,9.0,66,0.00,,SCT085,0.00,VWS V13.01,2013-10-26 12:02:00,
2013-10-26 08:07:00,40.3,30.2,29.94,South,187,0.0,9.0,67,0.00,,SCT085,0.00,VWS V13.01,2013-10-26 12:07:00,
2013-10-26 08:12:00,40.3,29.9,29.94,South,181,1.0,12.0,66,0.00,,SCT085,0.00,VWS V13.01,2013-10-26 12:12:00,
2013-10-26 08:17:00,40.4,30.0,29.93,South,190,5.0,12.0,66,0.00,,SCT085,0.00,VWS V13.01,2013-10-26 12:17:00,
2013-10-26 08:22:00,40.4,30.3,29.93,South,190,4.0,12.0,67,0.00,,SCT085,0.00,VWS V13.01,2013-10-26 12:22:00,
2013-10-26 08:27:00,40.4,30.0,29.92,South,180,1.0,17.0,66,0.00,,SCT085,0.00,VWS V13.01,2013-10-26 12:27:00,
2013-10-26 08:32:00,40.4,30.0,29.92,SSW,192,4.0,4.0,66,0.00,,SCT085,0.00,VWS V13.01,2013-10-26 12:32:00,
2013-10-26 08:37:00,40.4,30.0,29.92,SSW,200,2.0,12.0,66,0.00,,SCT085,0.00,VWS V13.01,2013-10-26 12:37:00,
2013-10-26 08:42:00,40.4,30.3,29.92,SSW,199,4.0,12.0,67,0.00,,SCT085,0.00,VWS V13.01,2013-10-26 12:42:00,
2013-10-26 08:47:00,40.6,30.1,29.92,South,183,2.0,16.0,66,0.00,,SCT085,0.00,VWS V13.01,2013-10-26 12:47:00,
2013-10-26 08:52:00,40.9,30.4,29.92,SW,236,1.0,16.0,66,0.00,,SCT085,0.00,VWS V13.01,2013-10-26 12:52:00,
2013-10-26 08:57:00,41.1,30.2,29.92,SW,227,11.0,16.0,65,0.00,,SCT085,0.00,VWS V13.01,2013-10-26 12:57:00,
2013-10-26 09:02:00,41.2,30.3,29.91,SSW,208,3.0,5.0,65,0.00,,BKN080,0.00,VWS V13.01,2013-10-26 13:02:00,
2013-10-26 09:07:00,41.2,30.7,29.91,SSW,198,1.0,8.0,66,0.00,,BKN080,0.00,VWS V13.01,2013-10-26 13:07:00,
2013-10-26 09:12:00,41.2,30.0,29.91,South,185,2.0,16.0,64,0.00,,BKN080,0.00,VWS V13.01,2013-10-26 13:12:00,
2013-10-26 09:17:00,41.3,30.4,29.91,SSW,196,1.0,16.0,65,0.00,,BKN080,0.00,VWS V13.01,2013-10-26 13:17:00,
2013-10-26 09:22:00,41.4,30.5,29.91,South,190,1.0,16.0,65,0.00,,BKN080,0.00,VWS V13.01,2013-10-26 13:22:00,
2013-10-26 09:27:00,41.5,30.2,29.91,South,190,5.0,19.0,64,0.00,,BKN080,0.00,VWS V13.01,2013-10-26 13:27:00,
2013-10-26 09:32:00,41.6,30.7,29.90,SSW,193,3.0,4.0,65,0.00,,BKN080,0.00,VWS V13.01,2013-10-26 13:32:00,
2013-10-26 09:37:00,41.7,30.4,29.91,SSW,193,10.0,14.0,64,0.00,,BKN080,0.00,VWS V13.01,2013-10-26 13:37:00,
2013-10-26 09:42:00,41.8,30.5,29.91,SSW,201,9.0,14.0,64,0.00,,BKN080,0.00,VWS V13.01,2013-10-26 13:42:00,
2013-10-26 09:47:00,41.8,30.5,29.91,South,186,4.0,16.0,64,0.00,,BKN080,0.00,VWS V13.01,2013-10-26 13:47:00,
2013-10-26 09:52:00,41.8,30.5,29.90,South,178,0.0,16.0,64,0.00,,BKN080,0.00,VWS V13.01,2013-10-26 13:52:00,
2013-10-26 09:57:00,41.9,30.6,29.90,SW,215,4.0,16.0,64,0.00,,BKN080,0.00,VWS V13.01,2013-10-26 13:57:00,
2013-10-26 10:03:00,41.8,30.5,29.90,SSW,194,1.0,5.0,64,0.00,,OVC060,0.00,VWS V13.01,2013-10-26 14:03:00,
2013-10-26 10:08:00,41.9,31.0,29.90,SSW,192,4.0,11.0,65,0.00,,OVC060,0.00,VWS V13.01,2013-10-26 14:08:00,
2013-10-26 10:13:00,41.9,31.0,29.90,SSW,212,12.0,16.0,65,0.00,,OVC060,0.00,VWS V13.01,2013-10-26 14:13:00,
2013-10-26 10:18:00,42.0,31.5,29.90,SSW,207,3.0,16.0,66,0.00,,OVC060,0.00,VWS V13.01,2013-10-26 14:18:00,
2013-10-26 10:23:00,42.1,31.2,29.89,SW,227,0.0,16.0,65,0.00,,OVC060,0.00,VWS V13.01,2013-10-26 14:23:00,
2013-10-26 10:28:00,42.3,31.4,29.89,SSW,198,0.0,16.0,65,0.00,,OVC060,0.00,VWS V13.01,2013-10-26 14:28:00,
2013-10-26 10:33:00,42.3,31.4,29.89,SSW,193,4.0,6.0,65,0.00,,OVC060,0.00,VWS V13.01,2013-10-26 14:33:00,
2013-10-26 10:38:00,42.2,31.7,29.88,SSW,208,2.0,7.0,66,0.00,,OVC060,0.00,VWS V13.01,2013-10-26 14:38:00,
2013-10-26 10:43:00,42.2,31.3,29.87,SSW,192,4.0,12.0,65,0.00,,OVC060,0.00,VWS V13.01,2013-10-26 14:43:00,
2013-10-26 10:48:00,42.2,31.3,29.87,SSW,198,4.0,17.0,65,0.00,,OVC060,0.00,VWS V13.01,2013-10-26 14:48:00,
2013-10-26 10:53:00,42.2,31.3,29.87,NE,43,0.0,17.0,65,0.00,,OVC060,0.00,VWS V13.01,2013-10-26 14:53:00,
2013-10-26 10:58:00,42.3,31.4,29.87,SSW,211,1.0,17.0,65,0.00,,OVC060,0.00,VWS V13.01,2013-10-26 14:58:00,
2013-10-26 11:03:00,42.3,31.4,29.86,South,183,5.0,7.0,65,0.00,,OVC080,0.00,VWS V13.01,2013-10-26 15:03:00,
2013-10-26 11:08:00,42.3,31.0,29.88,SSW,198,0.0,10.0,64,0.00,,OVC080,0.00,VWS V13.01,2013-10-26 15:08:00,
2013-10-26 11:13:00,42.2,31.3,29.88,SW,223,0.0,10.0,65,0.00,,OVC080,0.00,VWS V13.01,2013-10-26 15:13:00,
2013-10-26 11:18:00,42.2,31.3,29.87,SSE,159,2.0,10.0,65,0.00,,OVC080,0.00,VWS V13.01,2013-10-26 15:18:00,
2013-10-26 11:23:00,42.1,31.2,29.88,SSW,209,14.0,14.0,65,0.00,,OVC080,0.00,VWS V13.01,2013-10-26 15:23:00,
2013-10-26 11:28:00,42.2,31.3,29.87,South,173,1.0,14.0,65,0.00,,OVC080,0.00,VWS V13.01,2013-10-26 15:28:00,
2013-10-26 11:33:00,42.3,31.4,29.85,SSW,194,5.0,7.0,65,0.00,,OVC080,0.00,VWS V13.01,2013-10-26 15:33:00,
2013-10-26 11:38:00,42.3,31.4,29.85,South,187,0.0,12.0,65,0.00,,OVC080,0.00,VWS V13.01,2013-10-26 15:38:00,
2013-10-26 11:43:00,42.4,31.5,29.85,SSE,167,0.0,12.0,65,0.00,,OVC080,0.00,VWS V13.01,2013-10-26 15:43:00,
2013-10-26 11:48:00,42.5,31.6,29.85,South,191,0.0,12.0,65,0.00,,OVC080,0.00,VWS V13.01,2013-10-26 15:48:00,
2013-10-26 11:53:00,42.6,31.7,29.84,SSW,212,1.0,12.0,65,0.00,,OVC080,0.00,VWS V13.01,2013-10-26 15:53:00,
2013-10-26 11:58:00,42.7,31.8,29.84,SSW,195,8.0,16.0,65,0.00,,OVC080,0.00,VWS V13.01,2013-10-26 15:58:00,
2013-10-26 12:03:00,43.0,32.1,29.83,SSW,202,8.0,12.0,65,0.00,,OVC060,0.00,VWS V13.01,2013-10-26 16:03:00,
2013-10-26 12:08:00,43.2,31.9,29.84,South,184,9.0,12.0,64,0.00,,OVC060,0.00,VWS V13.01,2013-10-26 16:08:00,
2013-10-26 12:13:00,43.3,32.0,29.83,South,190,2.0,12.0,64,0.00,,OVC060,0.00,VWS V13.01,2013-10-26 16:13:00,
2013-10-26 12:18:00,43.4,32.0,29.84,WSW,257,1.0,12.0,64,0.00,,OVC060,0.00,VWS V13.01,2013-10-26 16:18:00,
2013-10-26 12:23:00,43.6,32.2,29.83,South,190,2.0,12.0,64,0.00,,OVC060,0.00,VWS V13.01,2013-10-26 16:23:00,
2013-10-26 12:28:00,43.7,32.3,29.83,SSW,196,0.0,12.0,64,0.00,,OVC060,0.00,VWS V13.01,2013-10-26 16:28:00,
2013-10-26 12:30:00,29.1,23.7,30.11,SSW,202,1.0,7.0,80,0.00,,,0.00,VWS V13.01,2013-10-26 16:30:00,
2013-10-26 12:33:00,43.8,32.0,29.84,South,190,2.0,6.0,63,0.00,,OVC060,0.00,VWS V13.01,2013-10-26 16:33:00,
2013-10-26 12:38:00,43.9,32.1,29.83,SSW,192,4.0,13.0,63,0.00,,OVC060,0.00,VWS V13.01,2013-10-26 16:38:00,
2013-10-26 12:43:00,44.0,32.6,29.83,South,186,1.0,13.0,64,0.00,,OVC060,0.00,VWS V13.01,2013-10-26 16:43:00,
2013-10-26 12:48:00,44.1,32.3,29.83,SSW,203,5.0,13.0,63,0.00,,OVC060,0.00,VWS V13.01,2013-10-26 16:48:00,
2013-10-26 12:53:00,44.2,32.4,29.83,SSW,194,13.0,13.0,63,0.00,,OVC060,0.00,VWS V13.01,2013-10-26 16:53:00,
2013-10-26 12:58:00,44.2,32.4,29.83,South,185,2.0,13.0,63,0.00,,OVC060,0.00,VWS V13.01,2013-10-26 16:58:00,
2013-10-26 13:03:00,44.3,32.5,29.82,South,186,1.0,6.0,63,0.00,,OVC055,0.00,VWS V13.01,2013-10-26 17:03:00,
2013-10-26 13:08:00,44.4,32.6,29.83,SSW,205,0.0,8.0,63,0.00,,OVC055,0.00,VWS V13.01,2013-10-26 17:08:00,
2013-10-26 13:13:00,44.5,32.3,29.83,SSW,200,0.0,8.0,62,0.00,,OVC055,0.00,VWS V13.01,2013-10-26 17:13:00,
2013-10-26 13:19:00,44.5,32.7,29.82,SSW,210,0.0,8.0,63,0.00,,OVC055,0.00,VWS V13.01,2013-10-26 17:19:00,
2013-10-26 13:24:00,44.6,32.4,29.82,South,190,10.0,10.0,62,0.00,,OVC055,0.00,VWS V13.01,2013-10-26 17:24:00,
2013-10-26 13:29:00,44.6,32.4,29.82,SSW,193,4.0,10.0,62,0.00,,OVC055,0.00,VWS V13.01,2013-10-26 17:29:00,
2013-10-26 13:34:00,44.7,32.5,29.82,SSW,209,6.0,8.0,62,0.00,,OVC055,0.00,VWS V13.01,2013-10-26 17:34:00,
2013-10-26 13:39:00,44.7,32.5,29.82,SSW,200,5.0,8.0,62,0.00,,OVC055,0.00,VWS V13.01,2013-10-26 17:39:00,
2013-10-26 13:44:00,44.8,32.2,29.82,SSW,209,1.0,8.0,61,0.00,,OVC055,0.00,VWS V13.01,2013-10-26 17:44:00,
2013-10-26 13:49:00,44.8,33.0,29.82,SSW,205,5.0,8.0,63,0.00,,OVC055,0.00,VWS V13.01,2013-10-26 17:49:00,
2013-10-26 13:54:00,44.9,32.7,29.82,SSW,193,3.0,12.0,62,0.00,,OVC055,0.00,VWS V13.01,2013-10-26 17:54:00,
2013-10-26 13:59:00,44.9,32.3,29.82,SSW,200,6.0,12.0,61,0.00,,OVC055,0.00,VWS V13.01,2013-10-26 17:59:00,
2013-10-26 14:04:00,44.9,32.3,29.82,SSW,200,11.0,15.0,61,0.00,,OVC065,0.00,VWS V13.01,2013-10-26 18:04:00,
2013-10-26 14:09:00,45.0,32.4,29.82,SSW,202,5.0,15.0,61,0.00,,OVC065,0.00,VWS V13.01,2013-10-26 18:09:00,
2013-10-26 14:14:00,45.0,32.8,29.82,SSW,193,5.0,15.0,62,0.00,,OVC065,0.00,VWS V13.01,2013-10-26 18:14:00,
2013-10-26 14:19:00,45.0,32.4,29.82,SSW,192,5.0,15.0,61,0.00,,OVC065,0.00,VWS V13.01,2013-10-26 18:19:00,
2013-10-26 14:24:00,45.0,32.8,29.82,South,190,0.0,15.0,62,0.00,,OVC065,0.00,VWS V13.01,2013-10-26 18:24:00,
2013-10-26 14:29:00,45.0,32.8,29.82,SSW,194,0.0,15.0,62,0.00,,OVC065,0.00,VWS V13.01,2013-10-26 18:29:00,
2013-10-26 14:34:00,45.0,32.8,29.81,South,189,7.0,7.0,62,0.00,,OVC065,0.00,VWS V13.01,2013-10-26 18:34:00,
2013-10-26 14:39:00,45.0,32.8,29.81,SSW,211,1.0,12.0,62,0.00,,OVC065,0.00,VWS V13.01,2013-10-26 18:39:00,
2013-10-26 14:44:00,45.0,32.8,29.82,SSW,196,3.0,12.0,62,0.00,,OVC065,0.00,VWS V13.01,2013-10-26 18:44:00,
2013-10-26 14:49:00,45.0,32.4,29.82,SSW,198,4.0,12.0,61,0.00,,OVC065,0.00,VWS V13.01,2013-10-26 18:49:00,
2013-10-26 14:54:00,45.1,33.3,29.81,SSE,165,2.0,12.0,63,0.00,,OVC065,0.00,VWS V13.01,2013-10-26 18:54:00,
2013-10-26 14:59:00,45.0,33.2,29.81,SSW,197,0.0,12.0,63,0.00,,OVC065,0.00,VWS V13.01,2013-10-26 18:59:00,
2013-10-26 15:04:00,44.8,33.8,29.81,SSW,207,0.0,10.0,65,0.00,,OVC070,0.00,VWS V13.01,2013-10-26 19:04:00,
2013-10-26 15:09:00,44.6,34.0,29.81,SSW,201,2.0,10.0,66,0.00,,OVC070,0.00,VWS V13.01,2013-10-26 19:09:00,
2013-10-26 15:14:00,44.5,33.9,29.81,SSW,207,4.0,10.0,66,0.00,,OVC070,0.00,VWS V13.01,2013-10-26 19:14:00,
2013-10-26 15:20:00,44.4,33.8,29.81,WSW,249,3.0,10.0,66,0.00,,OVC070,0.00,VWS V13.01,2013-10-26 19:20:00,
2013-10-26 15:25:00,44.3,34.0,29.81,SE,139,2.0,10.0,67,0.00,,OVC070,0.00,VWS V13.01,2013-10-26 19:25:00,
2013-10-26 15:30:00,44.3,34.0,29.80,SSW,192,3.0,12.0,67,0.00,,OVC070,0.00,VWS V13.01,2013-10-26 19:30:00,
2013-10-26 15:35:00,44.2,34.0,29.80,South,186,2.0,12.0,67,0.00,,OVC070,0.00,VWS V13.01,2013-10-26 19:35:00,
2013-10-26 15:41:00,44.2,33.6,29.80,SSW,204,4.0,14.0,66,0.00,,OVC070,0.00,VWS V13.01,2013-10-26 19:41:00,
2013-10-26 15:45:00,44.3,33.3,29.80,SW,218,2.0,14.0,65,0.00,,OVC070,0.00,VWS V13.01,2013-10-26 19:45:00,
2013-10-26 15:50:00,44.4,33.8,29.80,SSW,196,4.0,14.0,66,0.00,,OVC070,0.00,VWS V13.01,2013-10-26 19:50:00,
2013-10-26 15:55:00,44.6,33.6,29.80,SSW,192,0.0,14.0,65,0.00,,OVC070,0.00,VWS V13.01,2013-10-26 19:55:00,
2013-10-26 16:00:00,44.7,33.7,29.80,South,190,2.0,14.0,65,0.00,,OVC060,0.00,VWS V13.01,2013-10-26 20:00:00,
2013-10-26 16:06:00,44.9,33.5,29.81,SSW,195,0.0,9.0,64,0.00,,OVC060,0.00,VWS V13.01,2013-10-26 20:06:00,
2013-10-26 16:11:00,44.9,33.9,29.81,SSW,192,0.0,9.0,65,0.00,,OVC060,0.00,VWS V13.01,2013-10-26 20:11:00,
2013-10-26 16:16:00,44.9,33.5,29.81,SW,223,3.0,9.0,64,0.00,,OVC060,0.00,VWS V13.01,2013-10-26 20:16:00,
2013-10-26 16:21:00,45.0,33.6,29.81,South,190,1.0,9.0,64,0.00,,OVC060,0.00,VWS V13.01,2013-10-26 20:21:00,
2013-10-26 16:26:00,45.0,34.0,29.81,SW,214,5.0,10.0,65,0.00,,OVC060,0.00,VWS V13.01,2013-10-26 20:26:00,
2013-10-26 16:31:00,45.0,34.0,29.81,SSW,196,6.0,10.0,65,0.00,,OVC060,0.00,VWS V13.01,2013-10-26 20:31:00,
2013-10-26 16:36:00,45.0,33.6,29.81,South,190,1.0,6.0,64,0.00,,OVC060,0.00,VWS V13.01,2013-10-26 20:36:00,
2013-10-26 16:41:00,45.0,34.0,29.81,SSW,192,0.0,6.0,65,0.00,,OVC060,0.00,VWS V13.01,2013-10-26 20:41:00,
2013-10-26 16:46:00,45.0,34.0,29.81,West,274,0.0,6.0,65,0.00,,OVC060,0.00,VWS V13.01,2013-10-26 20:46:00,
2013-10-26 16:51:00,45.0,33.6,29.81,SSW,200,1.0,6.0,64,0.00,,OVC060,0.00,VWS V13.01,2013-10-26 20:51:00,
2013-10-26 16:56:00,45.0,34.0,29.81,South,189,1.0,6.0,65,0.00,,OVC060,0.00,VWS V13.01,2013-10-26 20:56:00,
2013-10-26 17:01:00,45.1,33.3,29.81,SSW,195,1.0,7.0,63,0.00,,OVC046,0.00,VWS V13.01,2013-10-26 21:01:00,
2013-10-26 17:06:00,45.1,33.7,29.81,SSW,195,0.0,7.0,64,0.00,,OVC046,0.00,VWS V13.01,2013-10-26 21:06:00,
2013-10-26 17:11:00,45.2,33.4,29.81,SSW,194,1.0,9.0,63,0.00,,OVC046,0.00,VWS V13.01,2013-10-26 21:11:00,
2013-10-26 17:16:00,45.1,33.7,29.81,South,187,0.0,9.0,64,0.00,,OVC046,0.00,VWS V13.01,2013-10-26 21:16:00,
2013-10-26 17:21:00,45.2,33.8,29.81,SW,219,5.0,10.0,64,0.00,,OVC046,0.00,VWS V13.01,2013-10-26 21:21:00,
2013-10-26 17:26:00,45.3,33.5,29.81,South,191,2.0,10.0,63,0.00,,OVC046,0.00,VWS V13.01,2013-10-26 21:26:00,
2013-10-26 17:31:00,45.2,33.8,29.81,SSW,194,4.0,4.0,64,0.00,,OVC046,0.00,VWS V13.01,2013-10-26 21:31:00,
2013-10-26 17:36:00,45.2,33.4,29.81,SSW,198,0.0,4.0,63,0.00,,OVC046,0.00,VWS V13.01,2013-10-26 21:36:00,
2013-10-26 17:41:00,45.2,33.8,29.81,SSW,194,0.0,5.0,64,0.00,,OVC046,0.00,VWS V13.01,2013-10-26 21:41:00,
2013-10-26 17:46:00,45.2,33.8,29.81,SSW,198,3.0,9.0,64,0.00,,OVC046,0.00,VWS V13.01,2013-10-26 21:46:00,
2013-10-26 17:51:00,45.2,34.2,29.81,SSE,150,0.0,9.0,65,0.00,,OVC046,0.00,VWS V13.01,2013-10-26 21:51:00,
2013-10-26 17:56:00,45.2,33.8,29.81,South,191,0.0,9.0,64,0.00,,OVC046,0.00,VWS V13.01,2013-10-26 21:56:00,
2013-10-26 18:01:00,45.2,33.8,29.81,SSW,206,1.0,1.0,64,0.00,,-RA,0.00,VWS V13.01,2013-10-26 22:01:00,
2013-10-26 18:06:00,45.2,33.8,29.81,SSW,197,0.0,6.0,64,0.00,,-RA,0.00,VWS V13.01,2013-10-26 22:06:00,
2013-10-26 18:11:00,45.2,33.8,29.81,South,191,2.0,10.0,64,0.00,,-RA,0.00,VWS V13.01,2013-10-26 22:11:00,
2013-10-26 18:16:00,45.2,33.8,29.81,WSW,240,2.0,10.0,64,0.00,,-RA,0.00,VWS V13.01,2013-10-26 22:16:00,
2013-10-26 18:21:00,45.2,33.8,29.82,SSW,198,1.0,10.0,64,0.00,,-RA,0.00,VWS V13.01,2013-10-26 22:21:00,
2013-10-26 18:26:00,45.2,33.8,29.81,South,186,0.0,10.0,64,0.00,,-RA,0.00,VWS V13.01,2013-10-26 22:26:00,
2013-10-26 18:31:00,45.2,34.2,29.81,South,189,0.0,1.0,65,0.00,,-RA,0.00,VWS V13.01,2013-10-26 22:31:00,
2013-10-26 18:36:00,45.1,33.7,29.82,South,188,0.0,5.0,64,0.00,,-RA,0.00,VWS V13.01,2013-10-26 22:36:00,
2013-10-26 18:42:00,45.1,33.7,29.82,SSW,195,0.0,5.0,64,0.00,,-RA,0.00,VWS V13.01,2013-10-26 22:42:00,
2013-10-26 18:47:00,45.2,33.8,29.82,SSW,198,1.0,7.0,64,0.00,,-RA,0.00,VWS V13.01,2013-10-26 22:47:00,
2013-10-26 18:52:00,45.2,34.2,29.82,SE,139,0.0,7.0,65,0.00,,-RA,0.00,VWS V13.01,2013-10-26 22:52:00,
2013-10-26 18:57:00,45.2,33.8,29.82,SSW,198,0.0,7.0,64,0.00,,-RA,0.00,VWS V13.01,2013-10-26 22:57:00,
2013-10-26 19:02:00,45.2,34.2,29.82,SSW,192,2.0,4.0,65,0.00,,OVC040,0.00,VWS V13.01,2013-10-26 23:02:00,
2013-10-26 19:07:00,45.2,34.2,29.82,SSW,202,0.0,7.0,65,0.00,,OVC040,0.00,VWS V13.01,2013-10-26 23:07:00,
2013-10-26 19:12:00,45.2,34.2,29.82,SSW,202,0.0,7.0,65,0.00,,OVC040,0.00,VWS V13.01,2013-10-26 23:12:00,
2013-10-26 19:17:00,45.2,34.2,29.82,SSW,207,2.0,7.0,65,0.00,,OVC040,0.00,VWS V13.01,2013-10-26 23:17:00,
2013-10-26 19:22:00,45.3,34.2,29.82,SSW,197,0.0,7.0,65,0.00,,OVC040,0.00,VWS V13.01,2013-10-26 23:22:00,
2013-10-26 19:27:00,45.3,34.6,29.82,SSW,196,0.0,7.0,66,0.00,,OVC040,0.00,VWS V13.01,2013-10-26 23:27:00,
2013-10-26 19:32:00,45.0,35.1,29.82,SSW,203,0.0,5.0,68,0.00,,OVC040,0.00,VWS V13.01,2013-10-26 23:32:00,
2013-10-26 19:37:00,44.8,35.3,29.82,SSW,201,1.0,6.0,69,0.00,,OVC040,0.00,VWS V13.01,2013-10-26 23:37:00,
2013-10-26 19:42:00,44.5,36.0,29.82,SSW,198,3.0,6.0,72,0.00,,OVC040,0.00,VWS V13.01,2013-10-26 23:42:00,
2013-10-26 19:47:00,44.1,36.0,29.82,South,191,1.0,6.0,73,0.00,,OVC040,0.00,VWS V13.01,2013-10-26 23:47:00,
2013-10-26 19:52:00,43.7,36.3,29.82,South,191,1.0,6.0,75,0.00,,OVC040,0.00,VWS V13.01,2013-10-26 23:52:00,
2013-10-26 19:57:00,43.4,36.3,29.82,South,177,1.0,6.0,76,0.00,,OVC040,0.00,VWS V13.01,2013-10-26 23:57:00,
2013-10-26 20:02:00,43.4,36.3,29.81,SW,218,5.0,5.0,76,0.00,,OVC040,0.00,VWS V13.01,2013-10-27 00:02:00,
2013-10-26 20:07:00,43.6,36.2,29.81,South,170,1.0,6.0,75,0.00,,OVC040,0.00,VWS V13.01,2013-10-27 00:07:00,
2013-10-26 20:12:00,43.6,36.5,29.81,South,171,1.0,6.0,76,0.00,,OVC040,0.00,VWS V13.01,2013-10-27 00:12:00,
2013-10-26 20:17:00,43.7,36.3,29.81,South,184,3.0,7.0,75,0.00,,-RA,0.00,VWS V13.01,2013-10-27 00:17:00,
2013-10-26 20:22:00,43.7,36.3,29.82,SSW,201,1.0,9.0,75,0.00,,-RA,0.00,VWS V13.01,2013-10-27 00:22:00,
2013-10-26 20:27:00,43.7,36.3,29.82,SSW,196,0.0,9.0,75,0.00,,-RA,0.00,VWS V13.01,2013-10-27 00:27:00,
2013-10-26 20:32:00,43.8,36.4,29.82,SSW,196,0.0,1.0,75,0.00,,-RA,0.00,VWS V13.01,2013-10-27 00:32:00,
2013-10-26 20:37:00,44.0,36.3,29.83,SSW,209,0.0,5.0,74,0.00,,-RA,0.00,VWS V13.01,2013-10-27 00:37:00,
2013-10-26 20:42:00,44.0,36.6,29.84,SSW,209,0.0,5.0,75,0.00,,-RA,0.00,VWS V13.01,2013-10-27 00:42:00,
2013-10-26 20:47:00,43.9,37.5,29.85,WSW,258,0.0,5.0,78,0.00,,-RA,0.00,VWS V13.01,2013-10-27 00:47:00,
2013-10-26 20:52:00,43.4,37.7,29.85,WNW,296,6.0,7.0,80,0.00,,-RA,0.00,VWS V13.01,2013-10-27 00:52:00,
2013-10-26 20:57:00,42.7,37.9,29.85,SW,222,1.0,7.0,83,0.00,,-RA,0.00,VWS V13.01,2013-10-27 00:57:00,
2013-10-26 21:02:00,42.2,38.0,29.85,SW,221,0.0,1.0,85,0.00,,RA,0.00,VWS V13.01,2013-10-27 01:02:00,
2013-10-26 21:07:00,41.8,38.2,29.86,SSW,203,0.0,3.0,87,0.00,,RA,0.00,VWS V13.01,2013-10-27 01:07:00,
2013-10-26 21:12:00,41.5,38.2,29.86,SSE,153,1.0,3.0,88,0.00,,RA,0.00,VWS V13.01,2013-10-27 01:12:00,
2013-10-26 21:17:00,41.2,38.2,29.86,South,189,2.0,4.0,89,0.00,,RA,0.00,VWS V13.01,2013-10-27 01:17:00,
2013-10-26 21:22:00,40.8,38.1,29.86,SSW,196,4.0,11.0,90,0.00,,RA,0.00,VWS V13.01,2013-10-27 01:22:00,
2013-10-26 21:27:00,40.6,38.2,29.85,SSW,196,0.0,11.0,91,0.00,,RA,0.00,VWS V13.01,2013-10-27 01:27:00,
2013-10-26 21:32:00,40.4,38.0,29.85,SSW,196,2.0,3.0,91,0.00,,RA,0.00,VWS V13.01,2013-10-27 01:32:00,
2013-10-26 21:38:00,40.2,37.8,29.85,SSW,195,3.0,8.0,91,0.00,,RA,0.00,VWS V13.01,2013-10-27 01:38:00,
2013-10-26 21:43:00,40.0,37.9,29.86,SSW,198,2.0,8.0,92,0.00,,RA,0.00,VWS V13.01,2013-10-27 01:43:00,
2013-10-26 21:48:00,40.0,37.9,29.85,SSW,203,4.0,8.0,92,0.00,,-RA,0.00,VWS V13.01,2013-10-27 01:48:00,
2013-10-26 21:53:00,39.9,37.8,29.85,SSW,198,1.0,8.0,92,0.00,,-RA,0.00,VWS V13.01,2013-10-27 01:53:00,
2013-10-26 21:58:00,39.7,37.6,29.86,SSW,198,0.0,8.0,92,0.00,,-RA,0.00,VWS V13.01,2013-10-27 01:58:00,
2013-10-26 22:03:00,39.7,37.8,29.86,SSW,198,0.0,3.0,93,0.00,,-RA,0.00,VWS V13.01,2013-10-27 02:03:00,
2013-10-26 22:08:00,39.6,37.8,29.86,SSW,196,1.0,6.0,93,0.00,,-RA,0.00,VWS V13.01,2013-10-27 02:08:00,
2013-10-26 22:13:00,39.6,37.8,29.86,SSW,204,0.0,6.0,93,0.00,,-RA,0.00,VWS V13.01,2013-10-27 02:13:00,
2013-10-26 22:18:00,39.7,37.8,29.86,SSW,192,0.0,6.0,93,0.00,,-RA,0.00,VWS V13.01,2013-10-27 02:18:00,
2013-10-26 22:23:00,39.7,37.8,29.86,South,182,0.0,6.0,93,0.00,,-RA,0.00,VWS V13.01,2013-10-27 02:23:00,
2013-10-26 22:28:00,39.8,38.0,29.87,SSW,194,4.0,6.0,93,0.00,,-RA,0.00,VWS V13.01,2013-10-27 02:28:00,
2013-10-26 22:33:00,40.0,38.4,29.87,SSW,193,0.0,2.0,94,0.00,,-RA,0.00,VWS V13.01,2013-10-27 02:33:00,
2013-10-26 22:38:00,40.0,38.4,29.87,SSW,193,0.0,2.0,94,0.00,,-RA,0.00,VWS V13.01,2013-10-27 02:38:00,
2013-10-26 22:43:00,40.1,38.5,29.87,SSE,160,0.0,2.0,94,0.00,,-RA,0.00,VWS V13.01,2013-10-27 02:43:00,
2013-10-26 22:48:00,39.8,38.0,29.87,SSE,160,0.0,2.0,93,0.00,,-RA,0.00,VWS V13.01,2013-10-27 02:48:00,
2013-10-26 22:53:00,39.8,38.2,29.88,SSE,160,0.0,2.0,94,0.00,,-RA,0.00,VWS V13.01,2013-10-27 02:53:00,
2013-10-26 22:58:00,39.8,38.2,29.88,SSE,160,0.0,2.0,94,0.00,,-RA,0.00,VWS V13.01,2013-10-27 02:58:00,
2013-10-26 23:03:00,39.9,38.3,29.88,SSE,160,0.0,0.0,94,0.00,,-RA,0.00,VWS V13.01,2013-10-27 03:03:00,
2013-10-26 23:08:00,40.0,38.4,29.88,SSE,160,0.0,1.0,94,0.00,,-RA,0.00,VWS V13.01,2013-10-27 03:08:00,
2013-10-26 23:13:00,40.1,38.5,29.88,SSE,160,0.0,1.0,94,0.00,,-RA,0.00,VWS V13.01,2013-10-27 03:13:00,
2013-10-26 23:18:00,40.2,38.6,29.88,SSE,160,0.0,1.0,94,0.00,,-RA,0.00,VWS V13.01,2013-10-27 03:18:00,
2013-10-26 23:23:00,40.3,38.7,29.88,SSE,160,0.0,1.0,94,0.00,,-RA,0.00,VWS V13.01,2013-10-27 03:23:00,
2013-10-26 23:28:00,40.3,38.7,29.88,SSE,160,0.0,1.0,94,0.00,,-RA,0.00,VWS V13.01,2013-10-27 03:28:00,
2013-10-26 23:33:00,40.4,38.8,29.88,ENE,61,0.0,0.0,94,0.00,,-RA,0.00,VWS V13.01,2013-10-27 03:33:00,
2013-10-26 23:38:00,40.9,39.6,29.88,SE,146,0.0,2.0,95,0.00,,-RA,0.00,VWS V13.01,2013-10-27 03:38:00,
2013-10-26 23:43:00,41.6,40.3,29.88,NNE,15,0.0,5.0,95,0.00,,-RA,0.00,VWS V13.01,2013-10-27 03:43:00,
2013-10-26 23:48:00,41.8,40.5,29.88,SW,230,0.0,6.0,95,0.00,,-RA,0.00,VWS V13.01,2013-10-27 03:48:00,
2013-10-26 23:53:00,41.9,40.3,29.88,WSW,239,1.0,9.0,94,0.00,,-RA,0.00,VWS V13.01,2013-10-27 03:53:00,
2013-10-26 23:58:00,42.3,40.7,29.88,WSW,249,1.0,9.0,94,0.00,,-RA,0.00,VWS V13.01,2013-10-27 03:58:00,